Main page
Satellite images Climate Cyclones Lightning AirportsFAQ Languages Contact Newsletter About
Weather : Europe Africa North America South America Asia Australia-Oceania Others

vientiane-la, Loei, Loei Airport

48353

latitude: , longitude: Thailand, elevation: 17-27N m


METAR: VTUL 211200Z 00000KT 9999 FEW025 27/27 Q1010 NOSIG